Location: Newark
(34.1333°N, 7.9667°W)
Time: 03:56:07
(UTC+00:00)

CUTE 1.7 + AOD 2 - Visible Passes

Search period start: 03 June 2023 00:00
Search period end: 13 June 2023 00:00
Orbit: 582 x 600 km, 97.7° (Epoch: 02 June)

Date Brightness Start Highest point End Pass type
(mag) Time Alt. Az. Time Alt. Az. Time Alt. Az.
03 Jun ? 03:22:17 10° NE 03:25:43 25° E 03:29:04 10° SSE visible
04 Jun ? 03:30:23 10° NE 03:34:05 31° E 03:37:31 11° SSE visible
05 Jun ? 03:38:32 10° NNE 03:42:27 40° E 03:45:57 12° SSE visible
06 Jun ? 03:46:44 10° NNE 03:50:46 52° E 03:54:22 13° S visible
07 Jun ? 03:54:58 10° NNE 03:59:06 67° E 04:02:47 13° S visible
08 Jun ? 04:03:15 10° NNE 04:07:24 86° ESE 04:11:12 12° SSW visible
09 Jun ? 04:11:34 10° N 04:15:41 74° WNW 04:19:36 11° SSW visible
10 Jun ? 04:19:54 10° N 04:23:58 57° WNW 04:27:58 10° SSW visible
11 Jun ? 02:55:16 10° ENE 02:56:29 11° E 02:57:43 10° ESE visible
11 Jun ? 04:28:16 10° N 04:32:13 44° WNW 04:36:08 10° SSW visible
12 Jun ? 03:02:35 10° ENE 03:04:49 14° E 03:07:04 10° SE visible
12 Jun ? 04:36:40 10° N 04:40:27 35° WNW 04:44:12 10° SW visible
